Location: Newark
(45.8667°N, 9.7333°E)
Time: 03:28:38
(UTC+00:00)

Transit 4A - Pass Details

Date: 27 January 2020
Orbit: 872 x 973 km, 66.8° (Epoch: 18 February)

Event Time Altitude Azimuth Distance (km) Brightness Sun altitude
Rises 06:22:04 0° 231° (SW) 3,540 10.6 -5.2°
Reaches altitude 10° 06:24:42 10° 237° (WSW) 2,586 9.9 -4.8°
Maximum altitude 06:30:27 47° 310° (NW) 1,169 8.1 -3.8°
Drops below altitude 10° 06:36:07 10° 24° (NNE) 2,545 10.2 -2.9°
Sets 06:38:42 0° 31° (NNE) 3,480 11.0 -2.5°
